Spokane, WA

3:08 PM PST on November 23, 2017 (GMT -0800)
Spokane International

Weather History for KGEG - April, 2014

Change the Weather History Date:

Thursday, April 24, 2014

  Actual Average Record
Temperature  
Mean Temperature 49 °F 49 °F  
Max Temperature 57 °F 60 °F 90 °F (1977)
Min Temperature 41 °F 38 °F 21 °F (2002)
Degree Days  
Heating Degree Days 16 16  
Month to date heating degree days 432 448  
Since 1 July heating degree days 6255 6044  
Cooling Degree Days 0 0  
Month to date cooling degree days 0 0  
Year to date cooling degree days 0 0  
Moisture  
Dew Point 39 °F    
Average Humidity 70    
Maximum Humidity 96    
Minimum Humidity 43    
Precipitation  
Precipitation 0.43 in 0.04 in 0.63 in (1975)
Month to date precipitation 1.02 1.06  
Year to date precipitation 6.72 5.79  
Snow  
Snow 0.00 in 0.00 in 1.40 in (1957)
Month to date snowfall 0.0 0.9  
Since 1 July snowfall 37.6 44.7  
Snow Depth 0.00 in    
Sea Level Pressure  
Sea Level Pressure 29.77 in    
Wind  
Wind Speed 15 mph (South)    
Max Wind Speed 31 mph    
Max Gust Speed 35 mph    
Visibility 8 miles    
Events Rain    
T = Trace of Precipitation, MM = Missing Value Source: NWS Daily Summary

Daily Weather History Graph

Daily Weather History Graph

Search for Another Location

Airport or City:

Trip Planner

Search our weather history database for the weather conditions in past years. The results will help you decide how hot, cold, wet, or windy it might be!

Date:

Astronomy

Apr. 24, 2014 Rise Set
Actual Time 5:44 AM PDT 7:52 PM PDT
Civil Twilight 5:11 AM PDT 8:26 PM PDT
Nautical Twilight 4:29 AM PDT 9:07 PM PDT
Astronomical Twilight 3:43 AM PDT 9:54 PM PDT
Moon 3:20 AM PDT (4/24) 2:53 PM PDT (4/24)
Length of Visible Light 15h 15m
Length of Day
14h 08m
Waning Crescent, 23% of the Moon is Illuminated
Apr 24
Waning Crescent
Apr 28
New
May 6
First Quarter
May 14
Full
May 21
Last Quarter

Hourly Weather History & Observations

Time (PDT) Temp. Windchill Dew Point Humidity Pressure Visibility Wind Dir Wind Speed Gust Speed Precip Events Conditions
12:53 AM 41.0 °F 38.0 °F 39.0 °F 93% 29.83 in 7.0 mi South 4.6 mph - 0.02 in Rain Light Rain
1:53 AM 41.0 °F 36.4 °F 39.0 °F 93% 29.81 in 7.0 mi SE 6.9 mph - 0.04 in Rain Light Rain
2:20 AM 41.0 °F 36.4 °F 39.0 °F 93% 29.78 in 7.0 mi SE 6.9 mph - 0.01 in Rain Light Rain
2:53 AM 41.0 °F 37.1 °F 37.9 °F 89% 29.78 in 9.0 mi SE 5.8 mph - 0.02 in Rain Light Rain
3:16 AM 41.0 °F 36.4 °F 39.0 °F 93% 29.76 in 7.0 mi SE 6.9 mph - 0.03 in Rain Light Rain
3:53 AM 41.0 °F 35.8 °F 39.0 °F 93% 29.76 in 7.0 mi SE 8.1 mph - 0.07 in Rain Light Rain
4:53 AM 41.0 °F 37.1 °F 39.9 °F 96% 29.76 in 7.0 mi South 5.8 mph - 0.08 in Rain Light Rain
5:45 AM 42.1 °F 37.7 °F 39.9 °F 92% 29.72 in 9.0 mi SE 6.9 mph - 0.04 in Rain Light Rain
5:53 AM 42.1 °F 36.6 °F 39.9 °F 92% 29.74 in 7.0 mi SSE 9.2 mph - 0.05 in Rain Light Rain
6:38 AM 42.1 °F 38.4 °F 41.0 °F 96% 29.73 in 5.0 mi South 5.8 mph - 0.06 in Rain Light Rain
6:42 AM 42.1 °F 37.7 °F 41.0 °F 96% 29.73 in 2.0 mi South 6.9 mph - 0.07 in Rain Light Rain
6:47 AM 42.8 °F 37.5 °F 41.0 °F 93% 29.73 in 3.0 mi SSE 9.2 mph - 0.07 in Rain Light Rain
6:53 AM 42.1 °F 37.1 °F 41.0 °F 96% 29.74 in 3.0 mi SSE 8.1 mph - 0.08 in Rain Light Rain
7:53 AM 45.0 °F 37.9 °F 43.0 °F 93% 29.74 in 3.0 mi South 16.1 mph 26.5 mph 0.05 in Rain Light Rain
8:16 AM 45.0 °F 37.4 °F 44.1 °F 97% 29.72 in 10.0 mi SSW 18.4 mph 24.2 mph 0.00 in   Overcast
8:53 AM 46.0 °F 38.3 °F 43.0 °F 89% 29.75 in 10.0 mi SSW 20.7 mph 27.6 mph 0.00 in   Overcast
9:53 AM 48.0 °F - 43.0 °F 83% 29.76 in 10.0 mi SSW 19.6 mph 28.8 mph N/A   Overcast
10:53 AM 48.9 °F - 43.0 °F 80% 29.78 in 10.0 mi SW 23.0 mph 29.9 mph 0.00 in   Overcast
11:53 AM 50.0 °F - 43.0 °F 77% 29.76 in 8.0 mi SSW 21.9 mph - 0.00 in Rain Light Rain
12:53 PM 51.1 °F - 45.0 °F 80% 29.75 in 10.0 mi WSW 17.3 mph - 0.05 in   Mostly Cloudy
1:53 PM 53.1 °F - 39.9 °F 61% 29.76 in 10.0 mi SW 24.2 mph 34.5 mph N/A   Mostly Cloudy
2:53 PM 55.9 °F - 39.9 °F 55% 29.75 in 10.0 mi SW 25.3 mph 31.1 mph N/A   Mostly Cloudy
3:53 PM 55.0 °F - 36.0 °F 49% 29.77 in 10.0 mi WSW 23.0 mph 29.9 mph N/A   Mostly Cloudy
4:53 PM 57.0 °F - 36.0 °F 45% 29.77 in 10.0 mi WSW 20.7 mph - N/A   Mostly Cloudy
5:53 PM 55.9 °F - 34.0 °F 44% 29.77 in 10.0 mi WSW 19.6 mph - N/A   Scattered Clouds
6:53 PM 54.0 °F - 35.1 °F 49% 29.77 in 10.0 mi SW 10.4 mph - N/A   Mostly Cloudy
7:53 PM 51.1 °F - 33.1 °F 50% 29.78 in 10.0 mi SW 12.7 mph - N/A   Scattered Clouds
8:53 PM 50.0 °F - 32.0 °F 50% 29.79 in 10.0 mi SSW 11.5 mph - N/A   Scattered Clouds
9:53 PM 48.0 °F - 33.1 °F 56% 29.80 in 10.0 mi SW 15.0 mph - N/A   Scattered Clouds
10:53 PM 48.0 °F - 32.0 °F 54% 29.80 in 10.0 mi South 8.1 mph - N/A   Mostly Cloudy
11:53 PM 45.0 °F 40.1 °F 34.0 °F 65% 29.80 in 10.0 mi SSE 9.2 mph - N/A   Mostly Cloudy